Home > Time Zones > World Clock > Weather > Niue > Alofi > Past weeks

Weather past 2 weeks in Alofi, Niue

Now
77 °F

Broken clouds.


Feels Like: 79 °F
Forecast: 69 / 80 °F
Wind: 14 mph from South

Location: Alofi / Niue

Current Time: Sep 16, 2014 at 7:04:07 PM

Latest Report: Sep 16, 2014 at 4:00 PM


Visibility: N/A

Pressure: 29.95 "Hg

Humidity: 74%

Dew point: 68 °F

Location of AlofiLocation

Historic Weather in Alofi — Graph

°F

Alofi temperature yesterday

Maximum temperature yesterday: 82 °F (at 12:00 PM)
Minimum temperature yesterday: 77 °F (at 9:00 AM)
Average temperature yesterday: 80 °F

Past Weeks' High & Low Weather Summary

 TemperatureHumidityPressure
High82 °F (Sep 15, 12:00 PM)100% (Sep 2, 3:00 AM)30.07 "Hg (Sep 2, 3:00 AM)
Low61 °F (Sep 2, 2:00 AM)54% (Sep 8, 2:00 PM)29.92 "Hg (Sep 3, 3:00 PM)
Average75 °F74%29.99 "Hg
* Reported Sep 1 4:00 PM — Sep 16 4:00 PM, Alofi, Weather by CustomWeather, © 2014

Note: Actual official high and low records may vary slightly from our data, if they occured in-between our weather recording intervals... More about our weather records

Advertising

Alofi weather history for previous 24 hours

 ConditionsComfort  
Time TempWeatherWind HumidityBarometerVisibility
4:00 PM
Sep 16
77 °FBroken clouds.14 mph74%29.95 "HgN/A
3:00 PM81 °FBroken clouds.13 mph70%29.95 "HgN/A
2:00 PM81 °FPartly sunny.14 mph66%29.95 "HgN/A
1:00 PM81 °FScattered clouds.13 mph66%29.98 "HgN/A
12:00 PM79 °FScattered clouds.13 mph74%29.98 "HgN/A
11:00 AM77 °FPartly sunny.12 mph79%30.01 "HgN/A
10:00 AM79 °FScattered clouds.10 mph70%30.01 "HgN/A
9:00 AM77 °FScattered clouds.9 mph74%30.04 "HgN/A
8:00 AM75 °FScattered clouds.8 mph83%30.01 "HgN/A
7:00 AM70 °FPassing clouds.6 mph94%29.98 "HgN/A
6:00 AM66 °FPassing clouds.3 mph94%29.98 "HgN/A
5:00 AM66 °FPassing clouds.2 mph94%29.95 "HgN/A
4:00 AM68 °FPassing clouds.3 mph94%29.95 "HgN/A
3:00 AM70 °FPassing clouds.6 mph94%29.95 "HgN/A
2:00 AM72 °FPassing clouds.7 mph88%29.98 "HgN/A
1:00 AM70 °FPassing clouds.5 mph94%29.98 "HgN/A
Weather by CustomWeather, © 2014

See weather overviewHow to use our weather pages